www.pogodaiklimat.ru

Погода и климат >> Архив погоды >> Россия >> Калмыкия >> Кетченеры


ПОГОДА в Кетченерах

  • Прогноз погоды в Кетченерах
  • Монитор погоды в Кетченерах
  • Климат города

АРХИВ ПОГОДЫ в Кетченерах

Время (UTC), дата Ветер
(напр.,м/с)
 
Видим.   Явления Облачность Т
(С)
Тd
(С)
f
(%)
Тe
(С)
Тes
(С)
Комфортность P
(гПа)
Po
(гПа)
Тmin
(С)
Tmax
(С)
R
(мм)
R24
(мм)
S
(см)
21 12.10 ЮЗ 1 20 км 10/10 600 м
[Sc]
+10.5 +8.4 87 +10 +10 1018.5 1011.5
03 13.10 З 3 4000 м дымка 10/10 600 м
[Cb calv]
+11.0 +9.6 91 +9 +9 1018.3 1011.3 +10.0
09 13.10 ЮЗ 4 20 км 9/9 600 м
[Cb calv]
+14.8 +8.0 64 +14 +14 1018.2 1011.3
15 13.10 З 4
{12}
20 км в посл. час ливневой дождь 10/10 600 м
[Cb calv]
+14.1 +11.8 86 +13 +13 1016.9 1010.0 +18.0 0.0
21 13.10 ЮЗ 3 20 км 10/10 600 м
[Cb calv]
+13.5 +9.3 76 +12 +12 1015.5 1008.5
03 14.10 Ю 5 20 км 10/10 600 м
[Cb calv]
+12.5 +8.5 77 +10 +10 1013.8 1006.8 +12.5
09 14.10 ЮЗ 8-13
{13}
20 км 10/10 600 м
[Cb calv]
+16.0 +8.3 60 +14 +14 1012.9 1006.0
15 14.10 ЮЗ 2 20 км 3/0
[Ac trans Ci fib]
+10.4 +7.9 84 +9 +9 1013.9 1006.9 +17.3 1
21 14.10 ЮЗ 4 2000 м дымка ясно +8.4 +7.7 95 +5 +5 1013.8 1006.7
03 15.10 ЮЗ 4 4000 м дымка 9/9 600 м
[Cb calv]
+9.3 +8.1 92 +6 +6 1012.9 1005.8 +8.0
09 15.10 З 5-10
{11}
20 км 8/8 600 м
[Cb calv]
+13.6 +5.2 57 +12 +13 1011.8 1004.8
15 15.10 ЮЗ 4
{12}
20 км 10/10 600 м
[Cb calv]
+9.1 +2.8 65 +6 +6 1010.0 1003.0 +13.7
21 15.10 ЮЗ 6-12
{12}
4000 м дымка {ливн. осадки} 10/10 600 м
[Cb calv]
+8.6 +7.7 94 +5 +5 1001.3 994.3
03 16.10 З 6-12
{13}
20 км {ливн. осадки} 10/10 600 м
[Cb calv]
+8.4 +5.7 83 +4 +4 1000.8 993.8 +6.8 3
09 16.10 З 6-13
{16}
20 км {ливн. осадки} 10/10 600 м
[Cb calv]
+7.1 +2.8 74 +3 +3 1006.1 999.0
15 16.10 З 4
{13}
20 км в посл. час ливневой дождь 10/10 600 м
[Cb calv]
+7.2 +5.1 86 +4 +4 1011.1 1004.0 +8.9 2
21 16.10 З 5-11
{11}
20 км 10/10 600 м
[Cb calv]
+6.5 +3.3 80 +2 +2 1012.2 1005.1
03 17.10 З 4
{12}
20 км 10/10 600 м
[Cb calv]
+6.1 +2.8 79 +2 +2 1014.0 1006.9 +6.1 2
09 17.10 З 4-10
{11}
20 км 8/8 600 м
[Cb calv]
+9.9 +2.2 59 +8 +8 1015.7 1008.6
15 17.10 З 1 20 км 9/3 600 м
[Cb calv Ac trans]
+9.8 +4.0 67 +10 +10 1015.7 1008.6 +10.4
21 17.10 З 2 20 км 10/10 600 м
[Sc]
+7.8 +6.1 89 +6 +6 1017.0 1009.8
03 18.10 З 2 2000 м дымка 10/10 600 м
[St]
+7.0 +6.4 96 +5 +5 1020.8 1013.6 +6.2
09 18.10 З 3 20 км ясно +13.1 +6.4 64 +12 +17 1023.2 1016.0
15 18.10 ЮЗ 2 20 км 10/10 600 м
[St]
+10.1 +7.3 83 +9 +9 1022.3 1015.2 +14.3
21 18.10 ЮЗ 4 20 км ясно +9.2 +6.1 81 +6 +6 1021.2 1014.1
03 19.10 З 3 2000 м дымка ясно +9.0 +8.5 97 +6 +6 1020.2 1013.1 +6.3
09 19.10 З 4 20 км 10/10 600 м
[St]
+15.4 +11.5 78 +14 +14 1019.4 1012.5
15 19.10 ЮЗ 2 20 км 3/0
[Ci fib]
+12.8 +9.6 81 +12 +12 1018.3 1011.3 +17.5

 

Местоположение метеостанции Кетченеры (Калмыкия, Россия): широта 47.32 долгота 44.57 высота над уровнем моря 58 м.

В архиве по умолчанию представлена погода в Кетченерах за последнюю неделю. Архивные данные за месяц целиком и за предыдущие месяцы, начиная с января 2011 года, Вы можете получить, выбрав интересующий диапазон дат из раскрывающегося списка и нажав кнопку "Ввод!".

Внимание! Время в таблицах - всемирное. Для получения местного времени необходимо прибавить поправку, которая в Кетченерах равна 3 ч.

Смотрите также архив погоды в соседних городах и на ближайших метеорологических станциях:

Погода в Малых Дербетах (Калмыкия, Россия) (69 км)
Погода в Элисте (Калмыкия, Россия) (107 км)
Погода в Ремонтном (Ростовская область, Россия) (108 км)
Погода в Котельниково (Волгоградская область, Россия) (112 км)
Погода в Юсте (Калмыкия, Россия) (134 км)
Погода в Яшкуле (Калмыкия, Россия) (140 км)
Погода в Черный Яр (Астраханская область, Россия) (143 км)
Погода в Волгограде город (Волгоградская область, Россия) (150 км)
Погода в Утте (Калмыкия, Россия) (153 км)
Погода в Нижнем Чире (Волгоградская область, Россия) (156 км)

Пояснения к столбцам:

Ветер - указаны скорость ветра в м/с - средняя за 10 мин, порывы в срок и между сроками (в фигурных скобках) и направление, откуда дует ветер: С - северный, СВ - северо-восточный, В - восточный, ЮВ - юго-восточный, Ю - южный, ЮЗ - юго-западный, З - западный, СЗ - северо-западный.
Видимость - горизонтальная дальность видимости в метрах или километрах. При видимости от 1 до 10 км при отсутствии осадков обычно наблюдается дымка, при ухудшении видимости до 1 км и менее - туман. В сухую погоду видимость может ухудшаться дымом, пылью или мглою.
Явления - указаны атмосферные явления, наблюдавшиеся в срок или в последний час перед сроком; фигурными скобками обозначены явления, наблюдавшиеся между сроками (за 1-3 часа до срока); квадратными скобками обозначены град или гололедные отложения с указанием их диаметра в мм.
Облачность - указаны через наклонную черту общая и нижняя облачность в баллах и высота нижней границы облаков в метрах; квадратными скобками обозначены формы облаков: Ci - перистые, Cs - перисто-слоистые, Cc - перисто-кучевые, Ac - высококучевые, As - высокослоистые, Sc - слоисто-кучевые, Ns - слоисто-дождевые, Cu - кучевые, Cb - кучево-дождевые. Подробнее классификацию облаков см. в Атласе облаков (PDF).
T - Температура воздуха - температура, измеренная на высоте 2 м над землей.
Td - Температура точки росы - температура, при понижении до которой содержащийся в воздухе водяной пар достигнет насыщения.
f - Относительная влажность воздуха - влажноcть воздуха, измеренная на высоте 2 м над землей.
Te - Эффективная температура - температура, которую ощущает одетый по сезону человек в тени. Характеристика душности погоды. При расчете учитывается влияние влажности воздуха и скорости ветра на теплоощущения человека.
Tes - Эффективная температура на солнце - температура, которую ощущает человек, с поправкой на солнечный нагрев. Характеристика знойности погоды. Зависит от высоты солнца над горизонтом, облачности и скорости ветра. Ночью, в пасмурную погоду, а также при ветре 12 м/с и более поправка равна нулю.
P - Атмосферное давление - приведенное к уровню моря атмосферное давление.
Po - Атмосферное давление - измеренное на уровне метеостанции атмосферное давление.
Tmin - Минимальная температура - минимум температуры воздуха на высоте 2 м над землей.
Tmax - Максимальная температура - максимум температуры воздуха на высоте 2 м над землей.
R - Количество осадков - Количество выпавших осадков за период времени, мм. При наведении курсора мыши на число - период времени, за который выпало указанное количество осадков.
R24 - Количество осадков - Количество выпавших осадков за 24 часа, мм.
S - Снежный покров - Высота снежного покрова, см. При наведении курсора мыши на число - состояние снежного покрова и степень покрытия местности в баллах.